Location: ????????
(55.7667°N, 37.4833°E)
Time: 10:25:42
(UTC+00:00)

Spot 2 Rocket - Pass Details

Date: 19 May 2025
Orbit: 753 x 766 km, 98.3° (Epoch: 13 June)

Event Time Altitude Azimuth Distance (km) Brightness Sun altitude
Exits shadow 18:37:34 - 172° (S) 2,912 6.0 -6.3°
Reaches altitude 10° 18:39:10 10° 175° (S) 2,277 5.5 -6.4°
Maximum altitude 18:44:08 65° 257° (WSW) 832 3.8 -6.9°
Drops below altitude 10° 18:49:11 10° 340° (NNW) 2,300 7.4 -7.3°
Sets 18:51:31 0° 343° (NNW) 3,232 8.3 -7.5°
